K3RTA Weather Reports


time (UTC)temp
F
wind
direction
speed
knots
gust
knots
rain 1hr
in
rain 24hr
in
rain mn
in
humidity
%
barometer
mb
20260505125005 67 243 0.9 7.8 0.00 0.00 0.00 56 1010.7
20260505124005 66 229 0.0 6.1 0.00 0.00 0.00 58 1010.5
20260505123004 65 239 0.9 6.1 0.00 0.00 0.00 60 1010.3
20260505122005 65 241 0.9 7.0 0.00 0.00 0.00 62 1010.4
20260505121005 64 231 0.0 4.3 0.00 0.00 0.00 63 1010.4
20260505120005 63 261 0.0 0.0 0.00 0.00 0.00 65 1010.3
20260505115005 63 257 0.0 2.6 0.00 0.00 0.00 66 1010.3
20260505114005 62 239 0.0 0.0 0.00 0.00 0.00 66 1010.2
20260505113005 62 243 0.0 0.9 0.00 0.00 0.00 67 1010.2
20260505112005 61 249 0.0 0.0 0.00 0.00 0.00 68 1010.2
20260505111005 61 236 0.0 0.0 0.00 0.00 0.00 69 1010.0
20260505100005 60 248 0.0 0.0 0.00 0.00 0.00 71 1009.6
20260505094005 60 248 0.0 0.0 0.00 0.00 0.00 71 1009.5
20260505093005 60 248 0.0 0.0 0.00 0.00 0.00 71 1009.4
20260505092005 60 236 0.0 0.0 0.00 0.00 0.00 71 1009.4
20260505091005 60 257 0.0 0.0 0.00 0.00 0.00 71 1009.3
20260505084005 59 237 0.0 0.0 0.00 0.00 0.00 74 1009.3
20260505083005 59 240 0.0 0.0 0.00 0.00 0.00 74 1009.3
20260505082005 59 255 0.0 0.0 0.00 0.00 0.00 75 1009.4
20260505081005 59 264 0.0 0.0 0.00 0.00 0.00 75 1009.3
20260505080005 59 264 0.0 0.0 0.00 0.00 0.00 74 1009.4
20260505075005 60 264 0.0 0.0 0.00 0.00 0.00 73 1009.2
20260505073004 61 264 0.0 0.0 0.00 0.00 0.00 69 1009.3
20260505072004 62 264 0.0 0.0 0.00 0.00 0.00 68 1009.3
20260505071005 62 250 0.0 0.0 0.00 0.00 0.00 69 1009.3
20260505070005 62 241 0.0 0.9 0.00 0.00 0.00 69 1009.2
20260505065005 61 286 0.0 0.0 0.00 0.00 0.00 69 1009.1
20260505064004 61 266 0.0 0.0 0.00 0.00 0.00 70 1009.1
20260505063004 61 248 0.0 0.0 0.00 0.00 0.00 71 1009.1
20260505062005 61 247 0.0 0.0 0.00 0.00 0.00 70 1009.1
20260505061004 60 124 0.0 0.0 0.00 0.00 0.00 71 1009.1
20260505055005 61 280 0.0 0.0 0.00 0.00 0.00 69 1009.1
20260505054005 61 272 0.0 0.0 0.00 0.00 0.00 68 1009.3
20260505053004 61 246 0.0 0.0 0.00 0.00 0.00 68 1009.2
20260505051005 61 121 0.0 0.0 0.00 0.00 0.00 67 1009.2
20260505041004 61 223 0.9 20.0 0.00 0.00 0.00 63 1009.1
20260505040005 62 223 0.0 0.0 0.00 0.00 0.00 61 1009.1
20260505035005 62 149 0.0 0.0 0.00 0.00 0.00 60 1009.1
20260505034005 62 213 0.0 0.0 0.00 0.00 0.00 59 1009.1
20260505033005 62 139 0.0 0.0 0.00 0.00 0.00 58 1009.1
20260505032004 63 132 0.0 0.0 0.00 0.00 0.00 57 1009.0
20260505030005 64 156 0.0 0.0 0.00 0.00 0.00 54 1009.1
20260505024006 64 149 0.0 0.0 0.00 0.00 0.00 51 1009.1
20260505023006 64 153 0.0 0.0 0.00 0.00 0.00 50 1009.2
20260505021004 64 155 0.0 0.0 0.00 0.00 0.00 49 1009.2
20260505020004 65 209 0.0 0.0 0.00 0.00 0.00 49 1009.1
20260505015005 65 136 0.0 0.0 0.00 0.00 0.00 48 1009.1
20260505013005 66 153 0.0 0.0 0.00 0.00 0.00 46 1009.0
20260505012004 66 121 0.0 0.0 0.00 0.00 0.00 46 1008.9
20260505011004 66 259 0.0 0.0 0.00 0.00 0.00 45 1008.8
20260505010005 67 152 0.9 4.3 0.00 0.00 0.00 44 1008.7
20260505004005 68 129 0.0 0.0 0.00 0.00 0.00 43 1008.5
20260505003005 69 154 0.0 0.0 0.00 0.00 0.00 41 1008.5
20260505002004 69 160 0.0 4.3 0.00 0.00 0.00 41 1008.5
20260505001005 70 163 0.0 0.0 0.00 0.00 0.00 40 1008.5
20260505000005 70 166 0.0 0.0 0.00 0.00 0.00 39 1008.5
20260504235004 71 151 0.0 0.0 0.00 0.00 0.00 37 1008.4
20260504233005 73 243 0.0 0.0 0.00 0.00 0.00 35 1008.3
20260504230005 74 208 0.0 0.0 0.00 0.00 0.00 34 1008.3
20260504225004 75 163 0.0 0.0 0.00 0.00 0.00 33 1008.3
20260504224004 75 165 0.0 0.0 0.00 0.00 0.00 34 1008.4
20260504223004 75 196 0.0 0.0 0.00 0.00 0.00 33 1008.2
20260504221004 75 257 0.9 6.1 0.00 0.00 0.00 33 1008.4
20260504220004 75 266 0.0 1.7 0.00 0.00 0.00 33 1008.4
20260504215004 74 263 0.9 4.3 0.00 0.00 0.00 33 1008.5
20260504214005 74 262 0.9 10.4 0.00 0.00 0.00 33 1008.6
20260504213004 75 246 1.7 8.7 0.00 0.00 0.00 32 1008.6
20260504212005 75 202 0.0 7.8 0.00 0.00 0.00 33 1008.6
20260504211005 75 222 0.0 1.7 0.00 0.00 0.00 33 1008.6
20260504210005 74 257 1.7 10.4 0.00 0.00 0.00 31 1008.6
20260504204004 75 243 0.0 1.7 0.00 0.00 0.00 32 1008.6
20260504203005 75 209 0.0 2.6 0.00 0.00 0.00 33 1008.8
20260504202005 74 187 0.0 2.6 0.00 0.00 0.00 32 1008.9
20260504194004 73 268 0.9 10.4 0.00 0.00 0.00 32 1009.6
20260504193004 72 236 0.9 13.0 0.00 0.00 0.00 32 1009.8
20260504192005 72 265 0.0 6.1 0.00 0.00 0.00 33 1009.9
20260504191005 72 276 0.9 11.3 0.00 0.00 0.00 32 1009.9
20260504190004 71 285 1.7 10.4 0.00 0.00 0.00 33 1010.1
20260504185005 72 268 0.9 11.3 0.00 0.00 0.00 33 1010.1
20260504184004 71 284 0.9 13.9 0.00 0.00 0.00 34 1010.2
20260504180005 71 288 0.0 10.4 0.00 0.00 0.00 33 1010.6
20260504175004 70 285 1.7 12.2 0.00 0.00 0.00 33 1010.7
20260504174005 69 287 0.9 6.1 0.00 0.00 0.00 33 1010.9
20260504173004 70 271 0.0 7.8 0.00 0.00 0.00 32 1011.1
20260504172005 69 269 1.7 10.4 0.00 0.00 0.00 32 1011.3
20260504171005 69 244 0.0 2.6 0.00 0.00 0.00 31 1011.5
20260504151004 65 281 0.0 8.7 0.00 0.00 0.00 43 1012.6